Tiempo cada hora Cava de' Tirreni

Hoy, 15 Enero, Viernes

Tiempo Temperatura Precipitaciones Viento Presión Humedad
00:00 +6°C° 0 mm 4 mps 726 mmHg 80%
01:00 +6°C° 0 mm 4 mps 725 mmHg 83%
02:00 +5°C° 0 mm 4 mps 725 mmHg 81%
03:00 +5°C° 0 mm 4 mps 725 mmHg 80%
04:00 +4°C° 0 mm 4 mps 725 mmHg 78%
05:00 +4°C° 0 mm 4 mps 725 mmHg 74%
06:00 +4°C° 0 mm 4 mps 725 mmHg 70%
07:00 +4°C° 0 mm 4 mps 725 mmHg 67%
08:00 +3°C° 0.1 mm 5 mps 725 mmHg 67%
09:00 +3°C° 0.1 mm 5 mps 725 mmHg 68%
10:00 +2°C° 0.1 mm 5 mps 725 mmHg 68%
11:00 +2°C° 0.7 mm 5 mps 725 mmHg 71%
12:00 +2°C° 0.7 mm 5 mps 724 mmHg 74%
13:00 +3°C° 0 mm 4 mps 724 mmHg 76%
14:00 +2°C° 1.3 mm 5 mps 724 mmHg 80%
15:00 +1°C° 1.3 mm 6 mps 724 mmHg 83%
16:00 +1°C° 1.3 mm 6 mps 724 mmHg 86%
17:00 +1°C° 0.2 mm 6 mps 724 mmHg 83%
18:00 +1°C° 0.2 mm 6 mps 724 mmHg 80%
19:00 0°C° 0.2 mm 5 mps 724 mmHg 77%
20:00 +1°C° 0 mm 5 mps 724 mmHg 76%
21:00 +1°C° 0 mm 5 mps 725 mmHg 75%
22:00 +1°C° 0 mm 5 mps 725 mmHg 75%
23:00 0°C° 0 mm 5 mps 725 mmHg 76%

Mañana, 16 Enero, Sábado

Tiempo Temperatura Precipitaciones Viento Presión Humedad
00:00 0°C° 0 mm 5 mps 726 mmHg 77%
01:00 0°C° 0 mm 5 mps 726 mmHg 78%
02:00 0°C° 0 mm 5 mps 726 mmHg 77%
03:00 0°C° 0 mm 4 mps 726 mmHg 77%
04:00 -1°C° 0 mm 4 mps 726 mmHg 76%
05:00 -1°C° 0 mm 4 mps 726 mmHg 76%
06:00 -1°C° 0 mm 5 mps 727 mmHg 76%
07:00 -1°C° 0 mm 5 mps 727 mmHg 76%
08:00 0°C° 0 mm 5 mps 728 mmHg 72%
09:00 +1°C° 0 mm 5 mps 728 mmHg 67%
10:00 +1°C° 0 mm 6 mps 729 mmHg 62%
11:00 +2°C° 0 mm 6 mps 729 mmHg 59%
12:00 +2°C° 0 mm 6 mps 729 mmHg 55%
13:00 +3°C° 0 mm 6 mps 729 mmHg 51%
14:00 +2°C° 0 mm 6 mps 729 mmHg 52%
15:00 +2°C° 0 mm 6 mps 729 mmHg 53%
16:00 +2°C° 0 mm 5 mps 730 mmHg 55%
17:00 +1°C° 0 mm 5 mps 730 mmHg 57%
18:00 0°C° 0 mm 4 mps 730 mmHg 60%
19:00 -1°C° 0 mm 4 mps 730 mmHg 63%
20:00 0°C° 0 mm 3 mps 731 mmHg 64%
21:00 -1°C° 0 mm 3 mps 731 mmHg 64%
22:00 -1°C° 0 mm 3 mps 731 mmHg 64%
23:00 -1°C° 0 mm 2 mps 731 mmHg 64%

Pasado mañana, 17 Enero, Domingo

Tiempo Temperatura Precipitaciones Viento Presión Humedad
00:00 -1°C° 0 mm 2 mps 731 mmHg 64%
01:00 +1°C° 0 mm 1 mps 731 mmHg 64%
02:00 +1°C° 0 mm 1 mps 731 mmHg 63%
03:00 +1°C° 0 mm 1 mps 730 mmHg 62%
04:00 +2°C° 0 mm 1 mps 730 mmHg 61%
05:00 +1°C° 0 mm 2 mps 730 mmHg 65%
06:00 +1°C° 0 mm 2 mps 730 mmHg 70%
07:00 +1°C° 0 mm 2 mps 730 mmHg 74%
08:00 +1°C° 0 mm 2 mps 730 mmHg 73%
09:00 +2°C° 0 mm 2 mps 730 mmHg 73%
10:00 +2°C° 0 mm 3 mps 730 mmHg 72%
11:00 +3°C° 0 mm 3 mps 729 mmHg 72%
12:00 +5°C° 0 mm 2 mps 729 mmHg 73%
13:00 +6°C° 0 mm 2 mps 728 mmHg 73%
14:00 +6°C° 0 mm 2 mps 728 mmHg 75%
15:00 +6°C° 0 mm 2 mps 727 mmHg 76%
16:00 +5°C° 0 mm 2 mps 727 mmHg 78%
17:00 +5°C° 0 mm 2 mps 727 mmHg 79%
18:00 +4°C° 0 mm 3 mps 727 mmHg 81%
19:00 +3°C° 0 mm 3 mps 727 mmHg 82%
20:00 +3°C° 0 mm 3 mps 727 mmHg 82%
21:00 +2°C° 0 mm 3 mps 727 mmHg 83%
22:00 +2°C° 0 mm 3 mps 727 mmHg 83%
23:00 +2°C° 0 mm 3 mps 728 mmHg 81%

18 Enero, Lunes

Tiempo Temperatura Precipitaciones Viento Presión Humedad
00:00 0°C° 0 mm 4 mps 728 mmHg 80%
01:00 0°C° 0 mm 4 mps 728 mmHg 78%
02:00 0°C° 0 mm 4 mps 728 mmHg 77%
03:00 -1°C° 0 mm 4 mps 728 mmHg 76%
04:00 -1°C° 0 mm 4 mps 728 mmHg 75%
05:00 -1°C° 0 mm 4 mps 729 mmHg 76%
06:00 -1°C° 0 mm 4 mps 730 mmHg 76%
07:00 0°C° 0 mm 3 mps 730 mmHg 76%
08:00 +2°C° 0 mm 3 mps 731 mmHg 73%
09:00 +3°C° 0 mm 3 mps 731 mmHg 69%
10:00 +4°C° 0 mm 3 mps 732 mmHg 65%
11:00 +5°C° 0 mm 3 mps 732 mmHg 61%
12:00 +5°C° 0 mm 4 mps 732 mmHg 58%
13:00 +6°C° 0 mm 4 mps 733 mmHg 55%
14:00 +6°C° 0 mm 4 mps 733 mmHg 56%
15:00 +7°C° 0 mm 3 mps 733 mmHg 56%
16:00 +5°C° 0 mm 3 mps 733 mmHg 56%
17:00 +4°C° 0 mm 3 mps 733 mmHg 60%
18:00 +3°C° 0 mm 3 mps 734 mmHg 63%
19:00 +2°C° 0 mm 3 mps 734 mmHg 66%
20:00 +3°C° 0 mm 2 mps 735 mmHg 68%
21:00 +3°C° 0 mm 2 mps 735 mmHg 70%
22:00 +2°C° 0 mm 2 mps 735 mmHg 72%
23:00 +2°C° 0 mm 2 mps 735 mmHg 71%

19 Enero, Martes

Tiempo Temperatura Precipitaciones Viento Presión Humedad
00:00 +2°C° 0 mm 2 mps 735 mmHg 71%
01:00 +2°C° 0 mm 2 mps 736 mmHg 70%
02:00 +2°C° 0 mm 2 mps 736 mmHg 69%
03:00 +2°C° 0 mm 2 mps 735 mmHg 68%
04:00 +2°C° 0 mm 2 mps 735 mmHg 66%
05:00 +2°C° 0 mm 2 mps 736 mmHg 65%
06:00 +3°C° 0 mm 1 mps 736 mmHg 64%
07:00 +3°C° 0 mm 1 mps 736 mmHg 62%
08:00 +4°C° 0 mm 1 mps 736 mmHg 58%
09:00 +5°C° 0 mm 1 mps 737 mmHg 54%
10:00 +7°C° 0 mm 1 mps 737 mmHg 50%
11:00 +8°C° 0 mm 1 mps 737 mmHg 52%
12:00 +8°C° 0 mm 1 mps 737 mmHg 54%
13:00 +9°C° 0 mm 1 mps 737 mmHg 56%
14:00 +9°C° 0 mm 1 mps 737 mmHg 58%
15:00 +9°C° 0 mm 1 mps 737 mmHg 61%
16:00 +8°C° 0 mm 1 mps 737 mmHg 64%
17:00 +7°C° 0 mm 1 mps 737 mmHg 67%
18:00 +6°C° 0 mm 1 mps 737 mmHg 70%
19:00 +5°C° 0 mm 1 mps 737 mmHg 73%
20:00 +5°C° 0 mm 1 mps 737 mmHg 74%
21:00 +5°C° 0 mm 1 mps 737 mmHg 75%
22:00 +5°C° 0 mm 1 mps 738 mmHg 76%
23:00 +5°C° 0 mm 1 mps 737 mmHg 77%

20 Enero, Miércoles

Tiempo Temperatura Precipitaciones Viento Presión Humedad
00:00 +5°C° 0 mm 1 mps 737 mmHg 77%
01:00 +4°C° 0 mm 1 mps 737 mmHg 78%
02:00 +4°C° 0 mm 1 mps 737 mmHg 79%
03:00 +4°C° 0 mm 1 mps 737 mmHg 79%
04:00 +4°C° 0 mm 1 mps 737 mmHg 80%
05:00 +5°C° 0 mm 1 mps 737 mmHg 81%
06:00 +4°C° 0 mm 2 mps 737 mmHg 81%
07:00 +4°C° 0 mm 2 mps 737 mmHg 82%
08:00 +5°C° 0 mm 2 mps 737 mmHg 78%
09:00 +6°C° 0 mm 2 mps 737 mmHg 75%
10:00 +7°C° 0 mm 2 mps 737 mmHg 72%
11:00 +7°C° 0 mm 2 mps 737 mmHg 69%
12:00 +8°C° 0 mm 2 mps 736 mmHg 67%
13:00 +9°C° 0 mm 3 mps 736 mmHg 64%
14:00 +8°C° 0 mm 3 mps 736 mmHg 68%
15:00 +8°C° 0 mm 3 mps 736 mmHg 71%
16:00 +7°C° 0 mm 3 mps 735 mmHg 75%
17:00 +7°C° 0.1 mm 3 mps 735 mmHg 78%
18:00 +7°C° 0.1 mm 3 mps 735 mmHg 81%
19:00 +7°C° 0.1 mm 3 mps 735 mmHg 85%
20:00 +7°C° 0.1 mm 3 mps 735 mmHg 85%
21:00 +5°C° 0.1 mm 3 mps 735 mmHg 85%
22:00 +5°C° 0.1 mm 3 mps 735 mmHg 85%
23:00 +5°C° 0 mm 3 mps 734 mmHg 83%
Mostrar más